Location: Central Falls
(41.8900°N, 71.3929°W)
Time: 02:29:28
(UTC+00:00)

Vanguard 2 Rocket - Pass Details

Date: 04 December 2023
Orbit: 555 x 3309 km, 32.9° (Epoch: 01 March)

Event Time Altitude Azimuth Distance (km) Brightness Sun altitude
Rises 23:56:32 0° 274° (W) 7,279 12.7 -29.4°
Reaches altitude 10° 00:01:39 10° 271° (W) 6,262 12.0 -30.3°
Maximum altitude 00:20:13 52° 203° (SSW) 3,272 9.6 -33.8°
Enters shadow 00:27:27 32° 149° (SSE) 3,513 9.5 -35.1°
Drops below altitude 10° 00:33:06 10° 132° (SE) 4,473 - -36.2°
Sets 00:36:06 0° 127° (SE) 5,150 - -36.7°
